Time,TemperatureF,DewpointF,PressureIn,WindDirection,WindDirectionDegrees,WindSpeedMPH,WindSpeedGustMPH,Humidity,HourlyPrecipIn,Conditions,Clouds,dailyrainin,SolarRadiationWatts/m^2,SoftwareType,DateUTC
2013-12-11 00:02:00,34.0,0.0,-100.00,ENE,64,8.0,15.0,23,0.00,,,0.00,0.000000,,2013-12-11 08:02:00,
2013-12-11 00:11:00,34.0,0.0,-100.00,ENE,64,8.0,15.0,23,0.00,,,0.00,0.000000,,2013-12-11 08:11:00,
2013-12-11 00:21:00,34.0,0.0,-100.00,ENE,64,8.0,15.0,23,0.00,,,0.00,0.000000,,2013-12-11 08:21:00,
2013-12-11 00:52:00,33.0,0.0,-100.00,ENE,78,8.0,12.0,24,0.00,,,0.00,0.000000,,2013-12-11 08:52:00,
2013-12-11 01:02:00,33.0,0.0,-100.00,ENE,78,8.0,12.0,24,0.00,,,0.00,0.000000,,2013-12-11 09:02:00,
2013-12-11 01:11:00,33.0,0.0,-100.00,ENE,78,8.0,12.0,24,0.00,,,0.00,0.000000,,2013-12-11 09:11:00,
2013-12-11 01:22:00,33.0,0.0,-100.00,ENE,78,8.0,12.0,24,0.00,,,0.00,0.000000,,2013-12-11 09:22:00,
2013-12-11 01:54:00,34.0,-1.0,-100.00,ESE,105,7.0,11.0,22,0.00,,,0.00,0.000000,,2013-12-11 09:54:00,
2013-12-11 02:03:00,34.0,-1.0,-100.00,ESE,105,7.0,11.0,22,0.00,,,0.00,0.000000,,2013-12-11 10:03:00,
2013-12-11 02:13:00,34.0,-1.0,-100.00,ESE,105,7.0,11.0,22,0.00,,,0.00,0.000000,,2013-12-11 10:13:00,
2013-12-11 02:22:00,34.0,-1.0,-100.00,ESE,105,7.0,11.0,22,0.00,,,0.00,0.000000,,2013-12-11 10:22:00,
2013-12-11 02:53:00,35.0,-2.0,-100.00,ENE,75,5.0,11.0,20,0.00,,,0.00,0.000000,,2013-12-11 10:53:00,
2013-12-11 03:03:00,35.0,-2.0,-100.00,ENE,75,5.0,11.0,20,0.00,,,0.00,0.000000,,2013-12-11 11:03:00,
2013-12-11 03:12:00,35.0,-2.0,-100.00,ENE,75,5.0,11.0,20,0.00,,,0.00,0.000000,,2013-12-11 11:12:00,
2013-12-11 03:22:00,35.0,-2.0,-100.00,ENE,75,5.0,11.0,20,0.00,,,0.00,0.000000,,2013-12-11 11:22:00,
2013-12-11 03:52:00,36.0,-2.0,-100.00,ENE,69,7.0,10.0,19,0.00,,,-99.99,0.000000,,2013-12-11 11:52:00,
2013-12-11 04:02:00,36.0,-2.0,-100.00,ENE,69,7.0,10.0,19,0.00,,,-99.99,0.000000,,2013-12-11 12:02:00,
2013-12-11 04:11:00,36.0,-2.0,-100.00,ENE,69,7.0,10.0,19,0.00,,,-99.99,0.000000,,2013-12-11 12:11:00,
2013-12-11 04:21:00,36.0,-2.0,-100.00,ENE,69,7.0,10.0,19,0.00,,,-99.99,0.000000,,2013-12-11 12:21:00,
2013-12-11 04:52:00,35.0,-3.0,-100.00,ENE,77,11.0,15.0,19,0.00,,,-99.99,0.000000,,2013-12-11 12:52:00,
2013-12-11 05:02:00,35.0,-3.0,-100.00,ENE,77,11.0,15.0,19,0.00,,,-99.99,0.000000,,2013-12-11 13:02:00,
2013-12-11 05:12:00,35.0,-3.0,-100.00,ENE,77,11.0,15.0,19,0.00,,,-99.99,0.000000,,2013-12-11 13:12:00,
2013-12-11 05:22:00,35.0,-3.0,-100.00,ENE,77,11.0,15.0,19,0.00,,,-99.99,0.000000,,2013-12-11 13:22:00,
2013-12-11 05:52:00,35.0,-2.0,-100.00,ENE,58,9.0,17.0,20,0.00,,,0.00,0.000000,,2013-12-11 13:52:00,
2013-12-11 06:02:00,35.0,-2.0,-100.00,ENE,58,9.0,17.0,20,0.00,,,0.00,0.000000,,2013-12-11 14:02:00,
2013-12-11 06:11:00,35.0,-2.0,-100.00,ENE,58,9.0,17.0,20,0.00,,,0.00,0.000000,,2013-12-11 14:11:00,
2013-12-11 06:21:00,35.0,-2.0,-100.00,ENE,58,9.0,17.0,20,0.00,,,0.00,0.000000,,2013-12-11 14:21:00,
2013-12-11 06:52:00,36.0,-1.0,-100.00,NNW,330,6.0,14.0,20,0.00,,,0.00,0.000000,,2013-12-11 14:52:00,
2013-12-11 07:02:00,36.0,-1.0,-100.00,NNW,330,6.0,14.0,20,0.00,,,0.00,0.000000,,2013-12-11 15:02:00,
2013-12-11 07:11:00,36.0,-1.0,-100.00,NNW,330,6.0,14.0,20,0.00,,,0.00,0.000000,,2013-12-11 15:11:00,
2013-12-11 07:21:00,36.0,-1.0,-100.00,NNW,330,6.0,14.0,20,0.00,,,0.00,0.000000,,2013-12-11 15:21:00,
2013-12-11 07:54:00,37.0,-1.0,-100.00,NNW,346,8.0,14.0,19,0.00,,,0.00,21.000000,,2013-12-11 15:54:00,
2013-12-11 08:04:00,37.0,-1.0,-100.00,NNW,346,8.0,14.0,19,0.00,,,0.00,21.000000,,2013-12-11 16:04:00,
2013-12-11 08:12:00,37.0,-1.0,-100.00,NNW,346,8.0,14.0,19,0.00,,,0.00,21.000000,,2013-12-11 16:12:00,
2013-12-11 08:23:00,37.0,-1.0,-100.00,NNW,346,8.0,14.0,19,0.00,,,0.00,21.000000,,2013-12-11 16:23:00,
2013-12-11 08:53:00,37.0,0.0,-100.00,North,358,8.0,16.0,20,0.00,,,0.00,226.000000,,2013-12-11 16:53:00,
2013-12-11 09:02:00,37.0,0.0,-100.00,North,358,8.0,16.0,20,0.00,,,0.00,226.000000,,2013-12-11 17:02:00,
2013-12-11 09:22:00,37.0,0.0,-100.00,North,358,8.0,16.0,20,0.00,,,0.00,226.000000,,2013-12-11 17:22:00,
2013-12-11 09:52:00,40.0,1.0,-100.00,North,10,8.0,13.0,19,0.00,,,0.00,441.000000,,2013-12-11 17:52:00,
2013-12-11 10:02:00,40.0,1.0,-100.00,North,10,8.0,13.0,19,0.00,,,0.00,441.000000,,2013-12-11 18:02:00,
2013-12-11 10:12:00,40.0,1.0,-100.00,North,10,8.0,13.0,19,0.00,,,0.00,441.000000,,2013-12-11 18:12:00,
2013-12-11 10:22:00,40.0,1.0,-100.00,North,10,8.0,13.0,19,0.00,,,0.00,441.000000,,2013-12-11 18:22:00,
2013-12-11 10:52:00,45.0,3.0,-100.00,SE,146,6.0,17.0,17,0.00,,,0.00,608.000000,,2013-12-11 18:52:00,
2013-12-11 11:02:00,45.0,3.0,-100.00,SE,146,6.0,17.0,17,0.00,,,0.00,608.000000,,2013-12-11 19:02:00,
2013-12-11 11:11:00,45.0,3.0,-100.00,SE,146,6.0,17.0,17,0.00,,,0.00,608.000000,,2013-12-11 19:11:00,
2013-12-11 11:21:00,45.0,3.0,-100.00,SE,146,6.0,17.0,17,0.00,,,0.00,608.000000,,2013-12-11 19:21:00,
2013-12-11 11:52:00,46.0,6.0,-100.00,SW,234,6.0,15.0,19,0.00,,,0.00,710.000000,,2013-12-11 19:52:00,
2013-12-11 12:02:00,46.0,6.0,-100.00,SW,234,6.0,15.0,19,0.00,,,0.00,710.000000,,2013-12-11 20:02:00,
2013-12-11 12:11:00,46.0,6.0,-100.00,SW,234,6.0,15.0,19,0.00,,,0.00,710.000000,,2013-12-11 20:11:00,
2013-12-11 12:22:00,46.0,6.0,-100.00,SW,234,6.0,15.0,19,0.00,,,0.00,710.000000,,2013-12-11 20:22:00,
2013-12-11 12:52:00,45.0,6.0,-100.00,WSW,250,7.0,13.0,20,0.00,,,0.00,738.000000,,2013-12-11 20:52:00,
2013-12-11 13:02:00,45.0,6.0,-100.00,WSW,250,7.0,13.0,20,0.00,,,0.00,738.000000,,2013-12-11 21:02:00,
2013-12-11 13:11:00,45.0,6.0,-100.00,WSW,250,7.0,13.0,20,0.00,,,0.00,738.000000,,2013-12-11 21:11:00,
2013-12-11 13:22:00,45.0,6.0,-100.00,WSW,250,7.0,13.0,20,0.00,,,0.00,738.000000,,2013-12-11 21:22:00,
2013-12-11 13:53:00,47.0,6.0,-100.00,NNE,12,6.0,13.0,18,0.00,,,0.00,688.000000,,2013-12-11 21:53:00,
2013-12-11 14:03:00,47.0,6.0,-100.00,NNE,12,6.0,13.0,18,0.00,,,0.00,688.000000,,2013-12-11 22:03:00,
2013-12-11 14:13:00,47.0,6.0,-100.00,NNE,12,6.0,13.0,18,0.00,,,0.00,688.000000,,2013-12-11 22:13:00,
2013-12-11 14:53:00,43.0,4.0,-100.00,South,191,8.0,13.0,19,0.00,,,0.00,563.000000,,2013-12-11 22:53:00,
2013-12-11 15:02:00,43.0,4.0,-100.00,South,191,8.0,13.0,19,0.00,,,0.00,563.000000,,2013-12-11 23:02:00,
2013-12-11 15:12:00,43.0,4.0,-100.00,South,191,8.0,13.0,19,0.00,,,0.00,563.000000,,2013-12-11 23:12:00,
2013-12-11 15:22:00,43.0,4.0,-100.00,South,191,8.0,13.0,19,0.00,,,0.00,563.000000,,2013-12-11 23:22:00,
2013-12-11 15:52:00,43.0,4.0,-100.00,North,350,8.0,18.0,19,0.00,,,0.00,378.000000,,2013-12-11 23:52:00,
2013-12-11 16:02:00,43.0,4.0,-100.00,North,350,8.0,18.0,19,0.00,,,0.00,378.000000,,2013-12-12 00:02:00,
2013-12-11 16:11:00,43.0,4.0,-100.00,North,350,8.0,18.0,19,0.00,,,0.00,378.000000,,2013-12-12 00:11:00,
2013-12-11 16:21:00,43.0,4.0,-100.00,North,350,8.0,18.0,19,0.00,,,0.00,378.000000,,2013-12-12 00:21:00,
2013-12-11 16:52:00,41.0,4.0,-100.00,NNE,15,8.0,15.0,21,0.00,,,-99.99,153.000000,,2013-12-12 00:52:00,
2013-12-11 17:01:00,41.0,4.0,-100.00,NNE,15,8.0,15.0,21,0.00,,,-99.99,153.000000,,2013-12-12 01:01:00,
2013-12-11 17:11:00,41.0,4.0,-100.00,NNE,15,8.0,15.0,21,0.00,,,-99.99,153.000000,,2013-12-12 01:11:00,
2013-12-11 17:22:00,41.0,4.0,-100.00,NNE,15,8.0,15.0,21,0.00,,,-99.99,153.000000,,2013-12-12 01:22:00,
2013-12-11 17:52:00,37.0,4.0,-100.00,NE,37,9.0,17.0,24,0.00,,,0.00,4.000000,,2013-12-12 01:52:00,
2013-12-11 18:01:00,37.0,4.0,-100.00,NE,37,9.0,17.0,24,0.00,,,0.00,4.000000,,2013-12-12 02:01:00,
2013-12-11 18:11:00,37.0,4.0,-100.00,NE,37,9.0,17.0,24,0.00,,,0.00,4.000000,,2013-12-12 02:11:00,
2013-12-11 18:21:00,37.0,4.0,-100.00,NE,37,9.0,17.0,24,0.00,,,0.00,4.000000,,2013-12-12 02:21:00,
2013-12-11 19:11:00,38.0,4.0,-100.00,North,0,8.0,21.0,24,0.00,,,0.00,0.000000,,2013-12-12 03:11:00,
2013-12-11 19:22:00,38.0,4.0,-100.00,North,0,8.0,21.0,24,0.00,,,0.00,0.000000,,2013-12-12 03:22:00,
2013-12-11 19:53:00,36.0,4.0,-100.00,ENE,58,9.0,19.0,26,0.00,,,0.00,0.000000,,2013-12-12 03:53:00,
2013-12-11 20:03:00,36.0,4.0,-100.00,ENE,58,9.0,19.0,26,0.00,,,0.00,0.000000,,2013-12-12 04:03:00,
2013-12-11 20:13:00,36.0,4.0,-100.00,ENE,58,9.0,19.0,26,0.00,,,0.00,0.000000,,2013-12-12 04:13:00,
2013-12-11 20:23:00,36.0,4.0,-100.00,ENE,58,9.0,19.0,26,0.00,,,0.00,0.000000,,2013-12-12 04:23:00,
2013-12-11 20:53:00,35.0,4.0,-100.00,North,352,7.0,19.0,26,0.00,,,0.00,0.000000,,2013-12-12 04:53:00,
2013-12-11 21:02:00,35.0,4.0,-100.00,North,352,7.0,19.0,26,0.00,,,0.00,0.000000,,2013-12-12 05:02:00,
2013-12-11 21:12:00,35.0,4.0,-100.00,North,352,7.0,19.0,26,0.00,,,0.00,0.000000,,2013-12-12 05:12:00,
2013-12-11 21:22:00,35.0,4.0,-100.00,North,352,7.0,19.0,26,0.00,,,0.00,0.000000,,2013-12-12 05:22:00,
2013-12-11 21:53:00,35.0,4.0,-100.00,North,357,6.0,14.0,26,0.00,,,0.00,0.000000,,2013-12-12 05:53:00,
2013-12-11 22:02:00,35.0,4.0,-100.00,North,357,6.0,14.0,26,0.00,,,0.00,0.000000,,2013-12-12 06:02:00,
2013-12-11 22:12:00,35.0,4.0,-100.00,North,357,6.0,14.0,26,0.00,,,0.00,0.000000,,2013-12-12 06:12:00,
2013-12-11 22:22:00,35.0,4.0,-100.00,North,357,6.0,14.0,26,0.00,,,0.00,0.000000,,2013-12-12 06:22:00,
2013-12-11 22:53:00,37.0,3.0,-100.00,WNW,296,8.0,15.0,23,0.00,,,0.00,0.000000,,2013-12-12 06:53:00,
2013-12-11 23:02:00,37.0,3.0,-100.00,WNW,296,8.0,15.0,23,0.00,,,0.00,0.000000,,2013-12-12 07:02:00,
2013-12-11 23:11:00,37.0,3.0,-100.00,WNW,296,8.0,15.0,23,0.00,,,0.00,0.000000,,2013-12-12 07:11:00,
2013-12-11 23:22:00,37.0,3.0,-100.00,WNW,296,8.0,15.0,23,0.00,,,0.00,0.000000,,2013-12-12 07:22:00,
2013-12-11 23:52:00,37.0,2.0,-100.00,North,356,7.0,14.0,22,0.00,,,0.00,0.000000,,2013-12-12 07:52:00,